Indiana, PA

9:53 AM EDT on March 23, 2017 (GMT -0400)
Indiana County-Stewart

Weather History for KIDI - January, 2014

Change the Weather History Date:

Monday, January 6, 2014

  Actual Average Record
Temperature  
Mean Temperature 20 °F -  
Max Temperature 48 °F 34 °F 59 °F (2007)
Min Temperature -7 °F 18 °F -7 °F (2014)
Degree Days  
Heating Degree Days 44    
Moisture  
Dew Point -4 °F    
Average Humidity 38    
Maximum Humidity 55    
Minimum Humidity 20    
Precipitation  
Precipitation 0.15 in - - ()
Sea Level Pressure  
Sea Level Pressure 29.72 in    
Wind  
Wind Speed 16 mph (West)    
Max Wind Speed 34 mph    
Max Gust Speed 53 mph    
Visibility 5 miles    
Events      
Averages and records for this station are not official NWS values.
T = Trace of Precipitation, MM = Missing Value Source: NWS Daily Summary

Daily Weather History Graph

Daily Weather History Graph

Search for Another Location

Airport or City:

Trip Planner

Search our weather history database for the weather conditions in past years. The results will help you decide how hot, cold, wet, or windy it might be!

Date:

Astronomy

Jan. 06, 2014 Rise Set
Actual Time 7:40 AM EST 5:04 PM EST
Civil Twilight 7:09 AM EST 5:35 PM EST
Nautical Twilight 6:35 AM EST 6:09 PM EST
Astronomical Twilight 6:02 AM EST 6:42 PM EST
Moon 10:52 AM EST (1/6) 11:38 PM EST (1/6)
Length of Visible Light 10h 25m
Length of Day
9h 24m
Waxing Crescent, 34% of the Moon is Illuminated
Jan 6
Waxing Crescent
Jan 7
First Quarter
Jan 15
Full
Jan 24
Last Quarter
Jan 30
New

Hourly Weather History & Observations

Time (EST) Temp. Windchill Dew Point Humidity Pressure Visibility Wind Dir Wind Speed Gust Speed Precip Events Conditions
12:15 AM 44.6 °F 38.4 °F 24.8 °F 46% 29.42 in 10.0 mi SSE 12.7 mph - 0.01 in   Overcast
12:35 AM 46.4 °F 41.1 °F 24.8 °F 43% 29.40 in 10.0 mi SSE 11.5 mph 18.4 mph 0.01 in   Overcast
12:55 AM 46.4 °F 41.5 °F 23.0 °F 40% 29.38 in 10.0 mi SSE 10.4 mph 16.1 mph 0.01 in   Overcast
1:15 AM 46.4 °F 41.1 °F 21.2 °F 37% 29.37 in 10.0 mi SSE 11.5 mph 19.6 mph N/A   Overcast
1:35 AM 46.4 °F 41.9 °F 21.2 °F 37% 29.37 in 10.0 mi South 9.2 mph - N/A   Overcast
1:55 AM 48.2 °F - 19.4 °F 32% 29.37 in 10.0 mi South 12.7 mph 17.3 mph N/A   Overcast
2:15 AM 46.4 °F 42.9 °F 23.0 °F 40% 29.36 in 10.0 mi South 6.9 mph - N/A   Overcast
2:35 AM 46.4 °F 44.3 °F 24.8 °F 43% 29.38 in 5.0 mi SW 4.6 mph - 0.02 in   Overcast
2:55 AM 46.4 °F 36.5 °F 23.0 °F 40% 29.41 in 3.0 mi WSW 34.5 mph 52.9 mph 0.06 in   Overcast
3:15 AM 42.8 °F 33.3 °F 24.8 °F 49% 29.44 in 10.0 mi West 24.2 mph 32.2 mph 0.01 in   Overcast
3:35 AM 41.0 °F 31.6 °F 19.4 °F 42% 29.47 in 10.0 mi WSW 20.7 mph 36.8 mph 0.02 in   Overcast
3:55 AM 39.2 °F 28.7 °F 19.4 °F 45% 29.47 in 7.0 mi West 23.0 mph 33.4 mph 0.02 in   Overcast
4:15 AM 37.4 °F 26.9 °F 19.4 °F 48% 29.47 in 5.0 mi West 20.7 mph 32.2 mph 0.02 in   Overcast
4:35 AM 37.4 °F 27.2 °F 19.4 °F 48% 29.49 in 7.0 mi WSW 19.6 mph 28.8 mph 0.03 in   Overcast
4:55 AM 35.6 °F 23.2 °F 19.4 °F 52% 29.50 in 5.0 mi West 26.5 mph 36.8 mph 0.05 in   Overcast
5:15 AM 32.0 °F 18.4 °F 15.8 °F 51% 29.56 in 1.0 mi West 26.5 mph 36.8 mph 0.01 in   Overcast
5:35 AM 30.2 °F 18.5 °F 15.8 °F 55% 29.57 in 1.2 mi West 17.3 mph 31.1 mph 0.01 in   Overcast
5:55 AM 30.2 °F 18.9 °F 15.8 °F 55% 29.57 in 1.2 mi West 16.1 mph 20.7 mph 0.01 in   Overcast
6:15 AM 30.2 °F 17.4 °F 15.8 °F 55% 29.61 in 1.2 mi West 20.7 mph 25.3 mph N/A   Overcast
6:35 AM 28.4 °F 18.0 °F 14.0 °F 55% 29.61 in 2.0 mi WNW 12.7 mph 23.0 mph N/A   Overcast
6:55 AM 28.4 °F 17.0 °F 10.4 °F 47% 29.63 in 4.0 mi West 15.0 mph 27.6 mph N/A   Overcast
7:15 AM 26.6 °F 12.7 °F 10.4 °F 51% 29.63 in 1.8 mi West 20.7 mph 33.4 mph N/A   Overcast
7:35 AM 26.6 °F 13.8 °F 8.6 °F 47% 29.65 in 4.0 mi West 17.3 mph 26.5 mph N/A   Overcast
7:55 AM 24.8 °F 13.4 °F 8.6 °F 50% 29.67 in 2.5 mi WNW 12.7 mph 25.3 mph N/A   Overcast
8:15 AM 24.8 °F 11.9 °F 5.0 °F 43% 29.69 in 5.0 mi West 16.1 mph 26.5 mph N/A   Overcast
8:35 AM 24.8 °F 11.1 °F 5.0 °F 43% 29.70 in 2.5 mi WNW 18.4 mph 26.5 mph N/A   Overcast
8:55 AM 23.0 °F 10.6 °F 3.2 °F 43% 29.71 in 2.5 mi WNW 13.8 mph 23.0 mph N/A   Overcast
9:15 AM 23.0 °F 12.4 °F 3.2 °F 43% 29.72 in 3.0 mi WNW 10.4 mph 16.1 mph N/A   Overcast
9:35 AM 21.2 °F 8.3 °F 3.2 °F 46% 29.73 in 2.0 mi WNW 13.8 mph 20.7 mph N/A   Overcast
9:55 AM 21.2 °F 9.5 °F 1.4 °F 42% 29.73 in 1.8 mi WNW 11.5 mph 19.6 mph N/A   Overcast
10:15 AM 21.2 °F 6.0 °F -0.4 °F 39% 29.74 in 1.5 mi WNW 19.6 mph 28.8 mph N/A   Overcast
10:35 AM 21.2 °F 6.8 °F 1.4 °F 42% 29.74 in 0.8 mi WNW 17.3 mph 21.9 mph N/A   Overcast
10:55 AM 21.2 °F 8.3 °F -0.4 °F 39% 29.74 in 2.0 mi West 13.8 mph 23.0 mph N/A   Overcast
11:15 AM 21.2 °F 10.1 °F -2.2 °F 36% 29.73 in 3.0 mi WNW 10.4 mph 21.9 mph N/A   Overcast
11:35 AM 21.2 °F 10.1 °F -4.0 °F 33% 29.73 in 3.0 mi WNW 10.4 mph 24.2 mph N/A   Overcast
11:55 AM 21.2 °F 10.1 °F -4.0 °F 33% 29.72 in 10.0 mi WNW 10.4 mph 18.4 mph N/A   Overcast
12:15 PM 21.2 °F 8.9 °F -2.2 °F 36% 29.71 in 2.5 mi West 12.7 mph 16.1 mph N/A   Overcast
12:35 PM 19.4 °F 4.1 °F -5.8 °F 33% 29.71 in 3.0 mi West 18.4 mph 24.2 mph N/A   Overcast
12:55 PM 19.4 °F 7.9 °F -5.8 °F 33% 29.71 in 5.0 mi West 10.4 mph 20.7 mph N/A   Overcast
1:15 PM 19.4 °F 5.5 °F -4.0 °F 36% 29.70 in 0.8 mi West 15.0 mph 21.9 mph N/A   Overcast
1:35 PM 19.4 °F 6.0 °F -2.2 °F 39% 29.71 in 0.5 mi West 13.8 mph 24.2 mph N/A   Overcast
1:55 PM 17.6 °F 5.0 °F -0.4 °F 45% 29.73 in - West 11.5 mph 20.7 mph N/A   Overcast
2:15 PM 15.8 °F -0.2 °F -5.8 °F 38% 29.73 in - West 17.3 mph 28.8 mph N/A   Overcast
2:35 PM 15.8 °F 2.1 °F -7.6 °F 35% 29.74 in - West 12.7 mph 19.6 mph N/A   Overcast
2:55 PM 12.2 °F -7.1 °F -5.8 °F 45% 29.75 in - West 23.0 mph 33.4 mph N/A   Overcast
3:15 PM 12.2 °F -5.3 °F -13.0 °F 32% 29.76 in - West 18.4 mph 33.4 mph N/A   Overcast
3:35 PM 10.4 °F -9.9 °F -14.8 °F 31% 29.78 in - West 24.2 mph 32.2 mph N/A   Overcast
3:55 PM 10.4 °F -9.9 °F -16.6 °F 29% 29.81 in - West 24.2 mph 36.8 mph N/A   Overcast
4:15 PM 8.6 °F -12.3 °F -16.6 °F 31% 29.82 in - West 24.2 mph 32.2 mph N/A   Overcast
4:35 PM 6.8 °F -15.5 °F -20.2 °F 28% 29.83 in - West 26.5 mph 32.2 mph N/A   Overcast
4:55 PM 6.8 °F -14.7 °F -27.4 °F 20% - - West 24.2 mph 32.2 mph N/A   Scattered Clouds
5:15 PM 5.0 °F -17.9 °F -22.0 °F 28% 29.86 in - West 26.5 mph 32.2 mph N/A   Mostly Cloudy
5:35 PM 3.2 °F -16.5 °F -16.6 °F 39% 29.88 in - WNW 17.3 mph 27.6 mph N/A   Overcast
5:55 PM 1.4 °F -20.5 °F -25.6 °F 27% 29.89 in - WNW 20.7 mph 27.6 mph N/A   Mostly Cloudy
6:15 PM 1.4 °F -21.9 °F -23.8 °F 30% 29.90 in - West 24.2 mph 33.4 mph N/A   Overcast
6:35 PM -0.4 °F -22.3 °F -23.8 °F 32% 29.92 in - West 19.6 mph 33.4 mph N/A   Overcast
6:55 PM -0.4 °F -21.7 °F -23.8 °F 32% 29.93 in - West 18.4 mph 29.9 mph N/A   Overcast
7:15 PM -2.2 °F -24.1 °F -27.4 °F 29% 29.93 in - West 18.4 mph 33.4 mph N/A   Overcast
7:35 PM -2.2 °F -25.2 °F -31.0 °F 24% 29.95 in - West 20.7 mph 32.2 mph N/A   Scattered Clouds
7:55 PM -2.2 °F -27.6 °F -31.0 °F 24% 29.95 in - West 26.5 mph 33.4 mph N/A   Scattered Clouds
8:15 PM -2.2 °F -22.9 °F -29.2 °F 27% 29.97 in - West 16.1 mph 27.6 mph N/A   Mostly Cloudy
8:35 PM -2.2 °F -25.2 °F -25.6 °F 32% 29.98 in - West 20.7 mph 33.4 mph N/A   Overcast
8:55 PM -4.0 °F -28.1 °F -32.8 °F 24% 29.98 in - West 21.9 mph 34.5 mph N/A   Overcast
9:15 PM -5.8 °F -27.5 °F -32.8 °F 26% 29.99 in - West 16.1 mph 28.8 mph N/A   Mostly Cloudy
9:35 PM -5.8 °F -29.4 °F -29.2 °F 32% 29.99 in - West 19.6 mph 27.6 mph N/A   Overcast
9:55 PM -5.8 °F -31.0 °F -32.8 °F 26% 30.00 in - West 23.0 mph 32.2 mph N/A   Overcast
10:15 PM -5.8 °F -29.4 °F -34.6 °F 24% 30.00 in - West 19.6 mph 27.6 mph N/A   Overcast
10:35 PM -5.8 °F -27.5 °F -32.8 °F 26% 30.01 in - West 16.1 mph 28.8 mph N/A   Overcast
10:55 PM -5.8 °F -28.2 °F -27.4 °F 35% 30.01 in - West 17.3 mph 23.0 mph N/A   Overcast
11:15 PM -5.8 °F -28.8 °F -27.4 °F 35% 30.01 in - West 18.4 mph 24.2 mph N/A   Overcast
11:35 PM -7.6 °F -31.1 °F -29.2 °F 34% 30.02 in - West 18.4 mph 29.9 mph N/A   Overcast
11:55 PM -7.6 °F -31.1 °F -29.2 °F 34% 30.02 in - West 18.4 mph 24.2 mph N/A   Overcast